Location: Unspecified
(0.0000°N, 0.0000°E)
Time: 18:14:25
(UTC+00:00)

Courier 1B Rocket - Pass Details

Date: 10 October 2020
Orbit: 921 x 1202 km, 28.2° (Epoch: 27 October)

Event Time Altitude Azimuth Distance (km) Brightness Sun altitude
Rises 01:28:08 0° 291° (WNW) 4,040 - -63.9°
Reaches altitude 10° 01:33:55 10° 324° (NW) 3,014 - -62.5°
Maximum altitude 01:35:46 11° 339° (NNW) 2,915 - -62.0°
Drops below altitude 10° 01:37:37 10° 354° (N) 2,964 - -61.6°
Sets 01:43:07 0° 28° (NNE) 3,836 - -60.3°
